Location: Asheville, NC
(35.6000°N, 82.5500°W)
Time: 09:37:27
(UTC-04:00)

LilacSat-2 - Pass Details

Date: 03 January 2018
Orbit: 515 x 535 km, 97.5° (Epoch: 16 July)

Event Time Altitude Azimuth Distance (km) Brightness Sun altitude
Rises 18:35:04 0° 197° (SSW) 2,659 ? -13.0°
Reaches altitude 10° 18:37:33 10° 214° (SSW) 1,777 ? -13.5°
Maximum altitude 18:40:32 21° 265° (W) 1,219 ? -14.1°
Drops below altitude 10° 18:43:32 10° 316° (NW) 1,792 ? -14.7°
Sets 18:46:03 0° 332° (NNW) 2,688 ? -15.2°
